Regional Weather Roundup
Issued by NWS Cleveland, OH

Home | Current Version | Previous Version | Graphics & Text | Print | Product List | Glossary On
Versions: 1 2 3 4 5 6 7 8 9 10 11 12 13 14 15 16 17 18 19 20 21 22 23 24 25 26 27 28 29 30 31 32 33 34 35 36 37 38 39 40 41 42 43 44 45 46 47 48 49 50
719
ASUS41 KCLE 200712
RWRCLE
OHIO REGIONAL WEATHER ROUNDUP
NATIONAL WEATHER SERVICE WILMINGTON, OH
200 AM EST FRI JAN 20 2017

NOTE: "FAIR" INDICATES FEW OR NO CLOUDS BELOW 12,000 FEET WITH NO
SIGNIFICANT WEATHER AND/OR OBSTRUCTIONS TO VISIBILITY.

OHZ001>008-015>018-024>027-034-035-043-044-200800-
   NORTHWEST OHIO

CITY           SKY/WX    TMP DP  RH WIND       PRES   REMARKS
DEFIANCE       MIX PCPN  36  34  92 E10       29.75F FOG
FINDLAY        CLOUDY    38  33  82 E10       29.74F
TOLEDO EXPRESS CLOUDY    35  35 100 E12       29.77F FOG     WCI  27
TOLEDO EXEC    MOCLDY    35  35 100 E8        29.80F FOG     WCI  29
LIMA           RAIN      39  39 100 E12       29.71F FOG
$$

OHZ009>014-019>023-028>033-038-089-200800-
   NORTHEAST OHIO

CITY           SKY/WX    TMP DP  RH WIND       PRES   REMARKS
CLE-HOPKINS    CLOUDY    39  33  79 SE9       29.83F
CLE-LAKEFRONT  FAIR      39  34  82 SE5       29.82F
CUY CO. ARPT   NOT AVBL
LORAIN-ELYRIA  FAIR      36  32  85 S8        29.81F
ASHTABULA      FAIR      34  32  92 SE7       29.87F WCI  28
AKRON-CANTON   CLOUDY    36  32  85 SE8       29.82F FOG
WOOSTER        MOCLDY    35  34  96 SE7       29.82F FOG     WCI  29
MANSFIELD      FAIR      36  35  96 E10       29.78F FOG
YOUNGSTOWN     MOCLDY    33  31  92 E9        29.85F WCI  25
$$

OHZ042-051>053-060>062-070>072-077>081-200800-
  SOUTHWEST OHIO

CITY           SKY/WX    TMP DP  RH WIND       PRES   REMARKS
CINC-COVINGTON RAIN      48  47  96 SE13      29.62F FOG
CINC-LUNKEN    LGT RAIN  47  47 100 NE6       29.65F FOG
HAMILTON       LGT RAIN  47  47 100 E7        29.64F FOG
DAYTON         RAIN      42  41  96 SE16      29.67F FOG
WRIGHT-PAT AFB NOT AVBL
DAYTON GENERAL LGT RAIN  45  43  93 E14       29.65F FOG
WILMINGTON     LGT RAIN  43  42  97 E10G20    29.68F FOG
$$

OHZ036-037-039>041-045>050-054>059-063>069-073>076-082>088-200800-
  CENTRAL AND SOUTHEAST OHIO

CITY           SKY/WX    TMP DP  RH WIND       PRES   REMARKS
COLUMBUS       RAIN      41  38  89 E10       29.77F FOG
OSU AIRPORT    RAIN      40  39  97 E10       29.76F FOG
BOLTON FIELD   LGT RAIN  39  38  97 E8        29.76F
RICKENBACK AFB LGT RAIN  39  39 100 E8        29.76F
NEWARK         LGT RAIN  40  36  86 E3        29.80S
MARION           N/A     39  35  86 SE12      29.77F
LANCASTER      RAIN      42  39  89 E7        29.78F FOG
ZANESVILLE     CLOUDY    39  35  86 E7        29.80F
NEW PHILLY     FAIR      37  35  92 SE3       29.83F
$$




USA.gov is the U.S. government's official web portal to all federal, state and local government web resources and services.